Location: Newark
(12.4436°N, 0.6167°W)
Time: 02:20:24
(UTC+00:00)

Transit 2A - Pass Details

Date: 11 December 2019
Orbit: 601 x 958 km, 66.7° (Epoch: 23 January)

Event Time Altitude Azimuth Distance (km) Brightness Sun altitude
Rises 16:47:46 0° 338° (NNW) 2,977 9.0 10.3°
Reaches altitude 10° 16:49:58 10° 338° (NNW) 2,108 8.3 9.8°
Maximum altitude 16:54:45 87° 251° (WSW) 729 6.2 8.7°
Drops below altitude 10° 17:00:05 10° 161° (SSE) 2,336 8.6 7.6°
Sets 17:02:37 0° 161° (SSE) 3,325 9.4 7.0°
